AA5AW Weather Reports


time (UTC)temp
F
wind
direction
speed
knots
gust
knots
rain 1hr
in
rain 24hr
in
rain mn
in
humidity
%
barometer
mb
20260421004527 61 243 0.0 0.0 0.00 0.00 0.00 74 1024.3
20260421003024 62 243 0.0 0.0 0.00 0.00 0.00 76 1024.6
20260421001539 62 243 0.0 0.0 0.00 0.00 0.00 76 1024.7
20260421000025 63 243 0.0 0.0 0.00 0.00 0.00 72 1025.0
20260420234520 64 243 0.0 0.0 0.00 0.00 0.00 68 1025.5
20260420233041 66 243 0.0 0.0 0.00 0.00 0.00 63 1025.5
20260420231515 66 243 0.0 0.9 0.00 0.00 0.00 62 1025.6
20260420230009 67 225 0.0 2.6 0.00 0.00 0.00 58 1025.6
20260420224553 67 186 0.0 4.3 0.00 0.00 0.00 57 1025.4
20260420223037 68 231 0.0 6.1 0.00 0.00 0.00 55 1025.3
20260420221526 69 263 0.0 3.5 0.00 0.00 0.00 54 1025.0
20260420220008 70 73 0.0 6.1 0.00 0.00 0.00 52 1025.1
20260420214544 70 115 0.0 5.2 0.00 0.00 0.00 48 1025.1
20260420213009 70 70 0.9 3.5 0.00 0.00 0.00 47 1025.3
20260420211503 71 205 0.9 3.5 0.00 0.00 0.00 45 1025.2
20260420210046 72 75 0.9 4.3 0.00 0.00 0.00 48 1025.2
20260420204536 71 73 1.7 2.6 0.00 0.00 0.00 47 1025.2
20260420203059 70 49 0.9 4.3 0.00 0.00 0.00 47 1025.4
20260420203002 70 58 0.9 4.3 0.00 0.00 0.00 49 1025.5
20260420201555 71 181 1.7 6.1 0.00 0.00 0.00 48 1025.8
20260420200031 71 92 1.7 5.2 0.00 0.00 0.00 48 1025.9
20260420194515 70 81 0.9 7.0 0.00 0.00 0.00 46 1026.0
20260420193047 69 37 1.7 8.7 0.00 0.00 0.00 48 1026.3
20260420191536 70 350 2.6 7.0 0.00 0.00 0.00 46 1026.7
20260420190007 68 37 0.9 7.8 0.00 0.00 0.00 50 1027.2
20260420184620 68 221 1.7 7.8 0.00 0.00 0.00 51 1027.1
20260420183044 68 56 1.7 7.0 0.00 0.00 0.00 50 1027.2
20260420181533 66 108 1.7 6.1 0.00 0.00 0.00 54 1027.0
20260420180020 65 97 0.0 6.1 0.00 0.00 0.00 55 1027.2
20260420174531 64 60 0.0 7.0 0.00 0.00 0.00 56 1027.3
20260420173017 64 63 0.0 5.2 0.00 0.00 0.00 59 1027.5
20260420171548 64 63 1.7 5.2 0.00 0.00 0.00 64 1027.6
20260420170035 62 39 0.0 3.5 0.00 0.00 0.00 69 1028.1
20260420164538 62 76 0.0 1.7 0.00 0.00 0.00 69 1028.3
20260420163005 61 76 0.0 1.7 0.00 0.00 0.00 69 1028.5
20260420161542 61 104 0.0 1.7 0.00 0.00 0.00 68 1028.3
20260420160023 61 117 0.9 4.3 0.00 0.00 0.00 69 1028.1
20260420154509 60 79 1.7 3.5 0.00 0.00 0.00 70 1028.0
20260420153049 60 69 0.9 5.2 0.00 0.00 0.00 72 1028.1
20260420151531 60 68 0.9 2.6 0.00 0.00 0.00 72 1028.3
20260420150011 59 63 0.0 6.1 0.00 0.00 0.00 74 1028.5
20260420144546 58 71 0.0 3.5 0.00 0.00 0.00 77 1028.1
20260420143032 57 82 0.9 5.2 0.00 0.00 0.00 79 1028.1
20260420141523 56 65 1.7 2.6 0.00 0.00 0.00 81 1028.3
20260420140051 55 95 0.0 3.5 0.00 0.00 0.00 82 1028.5
20260420134540 54 103 0.0 0.0 0.00 0.00 0.00 85 1028.4
20260420133054 53 103 0.0 0.0 0.00 0.00 0.00 91 1028.4
20260420131533 49 103 0.0 0.0 0.00 0.00 0.00 96 1027.9
20260420130011 48 103 0.0 0.0 0.00 0.00 0.00 96 1027.9
20260420124534 47 103 0.0 0.0 0.00 0.00 0.00 96 1027.6
20260420123021 46 103 0.0 0.0 0.00 0.00 0.00 96 1027.6
20260420121509 45 103 0.0 0.9 0.00 0.00 0.00 96 1027.2
20260420120046 44 103 0.0 1.7 0.00 0.00 0.00 95 1027.3
20260420114532 43 103 0.0 0.0 0.00 0.00 0.00 95 1027.3
20260420113019 43 103 0.0 0.9 0.00 0.00 0.00 95 1027.0
20260420111613 43 103 0.0 0.0 0.00 0.00 0.00 95 1026.8
20260420110038 43 103 0.0 0.0 0.00 0.00 0.00 95 1027.0
20260420104515 43 103 0.0 0.0 0.00 0.00 0.00 95 1026.8
20260420103058 44 103 0.0 0.0 0.00 0.00 0.00 95 1026.8
20260420101550 45 103 0.0 0.9 0.00 0.00 0.00 95 1026.7
20260420100037 45 103 0.0 0.9 0.00 0.00 0.00 94 1026.8
20260420094528 45 103 0.0 0.9 0.00 0.00 0.00 94 1026.3
20260420093008 46 103 0.0 0.0 0.00 0.00 0.00 94 1026.4
20260420091542 46 103 0.0 0.0 0.00 0.00 0.00 94 1026.2
20260420090022 46 103 0.0 0.0 0.00 0.00 0.00 94 1026.1
20260420084513 46 103 0.0 0.0 0.00 0.00 0.00 94 1026.3
20260420083052 46 103 0.0 0.0 0.00 0.00 0.00 94 1026.3
20260420081557 46 103 0.0 0.0 0.00 0.00 0.00 93 1026.2
20260420080045 46 103 0.0 0.0 0.00 0.00 0.00 93 1026.2
20260420074518 46 103 0.0 0.9 0.00 0.00 0.00 93 1025.9
20260420073048 47 103 0.0 0.0 0.00 0.00 0.00 93 1026.2
20260420071530 46 103 0.0 0.9 0.00 0.00 0.00 92 1026.1
20260420070016 46 103 0.0 0.9 0.00 0.00 0.00 92 1026.1
20260420064547 47 103 0.0 0.0 0.00 0.00 0.00 92 1026.3
20260420063014 47 103 0.0 0.0 0.00 0.00 0.00 91 1026.3
20260420061557 47 103 0.0 0.0 0.00 0.00 0.00 91 1026.2
20260420060050 47 103 0.0 0.9 0.00 0.00 0.00 90 1026.2
20260420054547 48 103 0.0 0.0 0.00 0.00 0.00 89 1026.1
20260420053026 49 103 0.0 0.0 0.00 0.00 0.00 88 1026.2
20260420051512 49 103 0.0 0.0 0.00 0.00 0.00 88 1026.2
20260420050054 49 103 0.0 0.0 0.00 0.00 0.00 88 1026.1
20260420044527 49 103 0.0 0.0 0.00 0.03 0.00 87 1026.0
20260420043009 49 103 0.0 0.0 0.00 0.03 0.00 87 1026.1
20260420041553 49 103 0.0 0.0 0.00 0.03 0.00 85 1026.1
20260420040041 49 103 0.0 0.0 0.00 0.03 0.00 85 1026.1
20260420034550 50 103 0.0 0.0 0.00 0.11 0.00 84 1026.1
20260420033032 51 103 0.0 0.0 0.00 0.11 0.00 84 1026.2
20260420031505 52 103 0.0 0.0 0.00 0.11 0.00 81 1026.0
20260420030053 53 103 0.0 0.0 0.00 0.11 0.00 81 1025.9
20260420024545 53 103 0.0 0.0 0.00 0.11 0.00 80 1025.5
20260420023034 54 103 0.0 0.0 0.00 0.11 0.00 77 1025.4
20260420021513 55 103 0.0 0.0 0.00 0.11 0.00 77 1025.1
20260420020053 56 103 0.0 0.0 0.00 0.11 0.00 76 1025.1
20260420014529 56 103 0.0 0.0 0.00 0.11 0.00 75 1024.9
20260420013013 58 103 0.0 0.0 0.00 0.11 0.00 76 1024.8
20260420011559 59 103 0.0 0.0 0.00 0.11 0.00 72 1024.8
20260420011501 59 103 0.0 0.0 0.00 0.11 0.00 72 1024.8
20260420010048 60 103 0.0 0.0 0.00 0.11 0.00 68 1024.8